Avoca, PA
on Thursday, October 30, 2014

Thursday
Previous Day Next Day
Daily Summary
 ActualAverageRecord
Temperature
Mean Temperature °F 47°F  
Max Temperature 50°F 56°F 78°F (1946)
Min Temperature 42°F 37°F 25°F (1969)
Degree Days
Heating Degree Days 19 18  
Month to date heating degree days 285 421  
Since 1 July heating degree days 398 583  
Cooling Degree Days 0 0  
Month to date cooling degree days 11 0  
Year to date cooling degree days 686 576  
Moisture
Dew Point 38°F   
Average Humidity 72    
Maximum Humidity 93    
Minimum Humidity 52    
Precipitation
Precipitation 0.00 in 0.09 in 2.12 in (1917)
Month to date precipitation 4.22 3.24  
Year to date precipitation 26.47 32.34  
Wind
Wind Speed 3 mph   
Max Wind Speed 18 mph   
Max Gust Speed 23 mph   
Visibility 8.9 miles   
Events     

Key: T is trace of precipitation, MM is missing value
Source: Averaged Metar Reports
Time(EDT)TemperatureDew PointHumidity Pressure Visibility Wind DirectionWind SpeedGust SpeedPrecipitationEvents Conditions
12:07 AM 46.9°F 45.0°F 93% 29.94 in 2.5 miles Calm Calm - N/A   Overcast
12:22 AM 46.9°F 45.0°F 93% 29.94 in 4.0 miles SSE 3.5 mph - N/A   Overcast
12:54 AM 48.0°F 44.1°F 86% 29.94 in 8.0 miles Calm Calm - N/A   Overcast
1:54 AM 44.1°F 42.1°F 93% 29.94 in 6.0 miles SSE 3.5 mph - N/A   Mostly Cloudy
2:54 AM 43.0°F 39.9°F 89% 29.95 in 9.0 miles SE 3.5 mph - N/A   Overcast
3:54 AM 46.0°F 39.0°F 76% 29.96 in 10.0 miles WNW 4.6 mph - N/A   Partly Cloudy
4:54 AM 43.0°F 39.0°F 86% 29.96 in 10.0 miles Calm Calm - N/A   Mostly Cloudy
5:54 AM 42.1°F 37.9°F 85% 29.98 in 10.0 miles Calm Calm - N/A   Overcast
6:03 AM 43.0°F 39.0°F 86% 29.98 in 10.0 miles Calm Calm - N/A   Overcast
6:54 AM 43.0°F 39.0°F 86% 30.00 in 10.0 miles Calm Calm - N/A   Overcast
7:06 AM 44.1°F 39.9°F 85% 29.99 in 10.0 miles Calm Calm - N/A   Overcast
7:29 AM 43.0°F 39.0°F 86% 30.00 in 8.0 miles Calm Calm - N/A   Overcast
7:54 AM 43.0°F 39.9°F 89% 30.01 in 8.0 miles Calm Calm - N/A   Overcast
8:54 AM 45.0°F 37.9°F 76% 30.03 in 10.0 miles NW 4.6 mph - N/A   Clear
9:54 AM 46.9°F 36.0°F 66% 30.04 in 10.0 miles NW 15.0 mph - N/A   Partly Cloudy
10:54 AM 48.0°F 34.0°F 58% 30.04 in 10.0 miles NW 12.7 mph - N/A   Overcast
11:54 AM 48.0°F 33.1°F 56% 30.04 in 10.0 miles Variable 6.9 mph - N/A   Overcast
12:54 PM 50.0°F 34.0°F 54% 30.03 in 10.0 miles NW 10.4 mph - N/A   Overcast
1:54 PM 48.9°F 33.1°F 54% 30.02 in 10.0 miles West 8.1 mph - N/A   Overcast
2:54 PM 48.9°F 33.1°F 54% 30.02 in 10.0 miles NW 6.9 mph - N/A   Overcast
3:54 PM 50.0°F 33.1°F 52% 30.01 in 10.0 miles NNW 8.1 mph - N/A   Overcast
4:54 PM 48.9°F 33.1°F 54% 30.03 in 10.0 miles NNW 9.2 mph - N/A   Overcast
5:54 PM 48.0°F 32.0°F 54% 30.03 in 10.0 miles NW 4.6 mph - N/A   Overcast
Astronomy
Sunrise:07:31 AM (EDT) Moon Rise:01:34 PM (EDT)
Sunset:06:00 PM (EDT) Moon Set:No Moon Set/
Moon Phase
Oct. 30 Oct. 30 Nov. 06 Nov. 14 Nov. 22

Copyright © 2014 The Weather Underground, Inc.